N3WMC Weather Reports


time (UTC)temp
C
wind
direction
speed
KPH
gust
KPH
rain 1hr
cm
rain 24hr
cm
rain mn
cm
humidity
%
barometer
mb
20260504030219 5 324 0.0 0.0 0.00 0.00 0.00 79 1014.6
20260504025715 5 324 0.0 0.0 0.00 0.00 0.00 78 1014.5
20260504025211 5 324 0.0 0.0 0.00 0.00 0.00 78 1014.8
20260504024709 5 324 0.0 0.0 0.00 0.00 0.00 77 1014.6
20260504024205 5 318 0.0 0.0 0.00 0.00 0.00 78 1014.7
20260504023702 5 318 0.0 0.0 0.00 0.00 0.00 77 1014.9
20260504023158 6 318 0.0 0.0 0.00 0.00 0.00 76 1014.8
20260504022654 6 318 0.0 0.0 0.00 0.00 0.00 74 1014.5
20260504022150 6 318 0.0 0.0 0.00 0.00 0.00 73 1014.8
20260504021648 6 318 0.0 0.0 0.00 0.00 0.00 73 1014.5
20260504021145 6 318 0.0 0.0 0.00 0.00 0.00 72 1014.6
20260504020642 6 318 0.0 0.0 0.00 0.00 0.00 72 1014.6
20260504020137 7 318 0.0 0.0 0.00 0.00 0.00 71 1014.7
20260504015634 7 318 0.0 0.0 0.00 0.00 0.00 71 1014.6
20260504015131 7 318 0.0 0.0 0.00 0.00 0.00 70 1014.8
20260504014626 7 318 0.0 0.0 0.00 0.00 0.00 68 1014.4
20260504014124 7 318 0.0 0.0 0.00 0.00 0.00 67 1014.7
20260504013621 7 318 0.0 0.0 0.00 0.00 0.00 66 1014.5
20260504013118 8 318 0.0 0.0 0.00 0.00 0.00 65 1014.6
20260504012615 8 318 0.0 0.0 0.00 0.00 0.00 63 1014.5
20260504012113 8 318 0.0 0.0 0.00 0.00 0.00 62 1014.4
20260504011610 8 318 0.0 0.0 0.00 0.00 0.00 60 1014.3
20260504011106 9 318 0.0 0.0 0.00 0.00 0.00 58 1014.4
20260504010602 10 318 0.0 0.0 0.00 0.00 0.00 55 1014.4
20260504010058 10 318 0.0 0.0 0.00 0.00 0.00 54 1014.4
20260504005555 10 318 0.0 0.0 0.00 0.00 0.00 53 1014.3
20260504005052 11 318 0.0 0.0 0.00 0.00 0.00 49 1014.4
20260504004550 11 318 0.0 0.0 0.00 0.00 0.00 46 1014.4
20260504004047 11 318 1.6 1.6 0.00 0.00 0.00 45 1014.3
20260504003543 12 328 0.0 0.0 0.00 0.00 0.00 44 1014.4
20260504003040 12 327 1.6 1.6 0.00 0.00 0.00 44 1014.3
20260504002537 12 328 4.8 4.8 0.00 0.00 0.00 43 1014.3
20260504002034 12 320 3.2 3.2 0.00 0.00 0.00 43 1014.2
20260504001532 12 325 1.6 1.6 0.00 0.00 0.00 43 1014.4
20260504001028 12 299 3.2 4.8 0.00 0.00 0.00 42 1014.4
20260504000525 12 349 3.2 3.2 0.00 0.00 0.00 42 1014.0
20260504000023 13 320 3.2 3.2 0.00 0.00 0.00 41 1014.3
20260503235521 13 310 3.2 4.8 0.00 0.00 0.00 41 1014.3
20260503235017 13 348 1.6 3.2 0.00 0.00 0.00 41 1014.0
20260503234515 13 277 3.2 4.8 0.00 0.00 0.00 40 1014.1
20260503234013 13 305 4.8 4.8 0.00 0.00 0.00 41 1014.5
20260503233509 13 303 6.4 8.0 0.00 0.00 0.00 40 1014.2
20260503233005 13 321 1.6 3.2 0.00 0.00 0.00 40 1014.3
20260503232502 13 291 6.4 8.0 0.00 0.00 0.00 39 1014.3
20260503232000 14 304 4.8 4.8 0.00 0.00 0.00 38 1014.2
20260503231457 14 328 1.6 1.6 0.00 0.00 0.00 39 1014.3
20260503230954 14 321 1.6 3.2 0.00 0.00 0.00 38 1014.1
20260503230450 14 278 6.4 9.7 0.00 0.00 0.00 38 1014.2
20260503225948 14 306 6.4 9.7 0.00 0.00 0.00 38 1014.4
20260503225445 14 275 8.0 11.3 0.00 0.00 0.00 38 1014.3
20260503224940 14 350 6.4 8.0 0.00 0.00 0.00 38 1014.3
20260503224437 14 336 4.8 4.8 0.00 0.00 0.00 37 1014.3
20260503223935 14 350 6.4 9.7 0.00 0.00 0.00 37 1014.4
20260503223433 14 327 4.8 8.0 0.00 0.00 0.00 37 1014.4
20260503222928 15 275 8.0 9.7 0.00 0.00 0.00 36 1014.5
20260503222427 15 340 1.6 1.6 0.00 0.00 0.00 36 1014.5
20260503221925 15 307 8.0 12.9 0.00 0.00 0.00 35 1014.5
20260503221423 15 306 9.7 12.9 0.00 0.00 0.00 36 1014.6
20260503220919 15 332 9.7 12.9 0.00 0.00 0.00 35 1014.5
20260503220415 15 324 4.8 4.8 0.00 0.00 0.00 35 1014.4
20260503215913 15 209 8.0 11.3 0.00 0.00 0.00 36 1014.2
20260503215410 15 336 1.6 1.6 0.00 0.00 0.00 37 1014.4
20260503214908 15 351 0.0 0.0 0.00 0.00 0.00 39 1014.4
20260503214404 15 284 6.4 8.0 0.00 0.00 0.00 37 1014.4
20260503213902 15 333 8.0 9.7 0.00 0.00 0.00 35 1014.4
20260503213400 15 305 6.4 8.0 0.00 0.00 0.00 37 1014.3
20260503212856 15 296 11.3 16.1 0.00 0.00 0.00 36 1014.2
20260503212354 15 285 4.8 4.8 0.00 0.00 0.00 35 1014.3
20260503211851 15 253 11.3 14.5 0.00 0.00 0.00 36 1014.2
20260503211348 15 330 8.0 12.9 0.00 0.00 0.00 34 1014.3
20260503210843 15 307 3.2 8.0 0.00 0.00 0.00 37 1014.3
20260503210340 15 347 1.6 1.6 0.00 0.00 0.00 37 1014.3
20260503205835 15 312 9.7 12.9 0.00 0.00 0.00 35 1014.4
20260503205332 16 322 6.4 9.7 0.00 0.00 0.00 35 1014.4
20260503204829 15 245 8.0 11.3 0.00 0.00 0.00 34 1014.5
20260503204326 15 307 6.4 9.7 0.00 0.00 0.00 35 1014.4
20260503203823 15 0 9.7 12.9 0.00 0.00 0.00 34 1014.5
20260503203321 15 300 6.4 9.7 0.00 0.00 0.00 34 1014.3
20260503202817 15 337 6.4 9.7 0.00 0.00 0.00 36 1014.6
20260503202315 15 322 6.4 8.0 0.00 0.00 0.00 36 1014.7
20260503201813 15 3 1.6 3.2 0.00 0.00 0.00 36 1014.8
20260503201310 15 336 1.6 3.2 0.00 0.00 0.00 38 1014.6
20260503200808 15 305 8.0 11.3 0.00 0.00 0.00 36 1014.8
20260503200303 15 202 6.4 8.0 0.00 0.00 0.00 38 1014.7
20260503195801 15 324 6.4 9.7 0.00 0.00 0.00 36 1014.9
20260503195257 15 323 14.5 17.7 0.00 0.00 0.00 34 1015.0
20260503194755 15 284 4.8 8.0 0.00 0.00 0.00 36 1015.1
20260503194250 16 299 4.8 4.8 0.00 0.00 0.00 33 1015.2
20260503193741 15 313 8.0 11.3 0.00 0.00 0.00 36 1015.2
20260503193238 13 256 6.4 9.7 0.00 0.00 0.00 36 1015.5
20260503192733 14 329 3.2 8.0 0.00 0.00 0.00 37 1015.6
20260503192228 15 275 4.8 8.0 0.00 0.00 0.00 36 1015.6
20260503191726 14 317 4.8 4.8 0.00 0.00 0.00 37 1015.5
20260503191223 15 265 11.3 12.9 0.00 0.00 0.00 36 1015.8
20260503190720 13 278 3.2 4.8 0.00 0.00 0.00 39 1015.8
20260503190216 14 270 8.0 9.7 0.00 0.00 0.00 36 1015.5
20260503185714 13 328 3.2 4.8 0.00 0.00 0.00 38 1015.9
20260503185209 14 287 4.8 4.8 0.00 0.00 0.00 36 1015.9
20260503184704 15 288 6.4 8.0 0.00 0.00 0.00 37 1015.8
20260503184200 15 15 3.2 4.8 0.00 0.00 0.00 39 1016.1
20260503183656 15 325 6.4 11.3 0.00 0.00 0.00 38 1016.1
20260503183154 13 343 4.8 4.8 0.00 0.00 0.00 40 1016.4
20260503182652 13 271 9.7 14.5 0.00 0.00 0.00 39 1016.3
20260503182150 15 315 1.6 3.2 0.00 0.00 0.00 38 1016.5
20260503181647 14 4 6.4 8.0 0.00 0.00 0.00 38 1016.1
20260503181144 14 321 6.4 9.7 0.00 0.00 0.00 37 1016.3
20260503180641 13 307 9.7 12.9 0.00 0.00 0.00 38 1016.6
20260503180139 13 318 6.4 9.7 0.00 0.00 0.00 39 1016.4
20260503175635 13 250 9.7 11.3 0.00 0.00 0.00 38 1016.7
20260503175132 14 7 6.4 12.9 0.00 0.00 0.00 40 1016.9
20260503174628 13 292 8.0 9.7 0.00 0.00 0.00 38 1016.7
20260503174126 13 201 11.3 17.7 0.00 0.00 0.00 37 1016.9
20260503173620 13 304 8.0 8.0 0.00 0.00 0.00 37 1017.0
20260503173117 13 306 6.4 12.9 0.00 0.00 0.00 38 1016.9
20260503172614 13 303 3.2 8.0 0.00 0.00 0.00 37 1016.9
20260503172112 13 256 4.8 8.0 0.00 0.00 0.00 36 1017.0
20260503171609 13 359 9.7 11.3 0.00 0.00 0.00 39 1016.7
20260503171105 13 300 6.4 9.7 0.00 0.00 0.00 37 1017.1
20260503170601 13 215 8.0 11.3 0.00 0.00 0.00 37 1017.1
20260503150954 11 268 1.6 1.6 0.00 0.00 0.00 43 1017.9
20260503150450 10 300 4.8 8.0 0.00 0.00 0.00 40 1018.0
20260503131344 6 327 1.6 3.2 0.00 0.00 0.00 69 1018.5
20260503130841 6 297 3.2 4.8 0.00 0.00 0.00 68 1018.6
20260503130338 6 337 0.0 1.6 0.00 0.00 0.00 72 1018.5
20260503110726 -2 352 0.0 0.0 0.00 0.00 0.00 98 1018.0
20260503110223 -2 352 0.0 0.0 0.00 0.00 0.00 98 1018.0
20260503100144 -2 352 0.0 0.0 0.00 0.00 0.00 97 1017.5
20260503081538 -1 352 0.0 0.0 0.00 0.00 0.00 96 1017.1
20260503081036 0 352 0.0 0.0 0.00 0.00 0.00 96 1017.2
20260503080532 0 352 0.0 0.0 0.00 0.00 0.00 96 1017.0
20260503072505 0 352 0.0 0.0 0.00 0.00 0.00 95 1017.0
20260503072003 0 352 0.0 0.0 0.00 0.00 0.00 95 1016.7
20260503071459 0 352 0.0 0.0 0.00 0.00 0.00 95 1016.7
20260503070955 0 352 0.0 0.0 0.00 0.00 0.00 95 1016.5
20260503070453 1 352 0.0 0.0 0.00 0.00 0.00 95 1016.7
20260503054906 0 352 0.0 0.0 0.00 0.00 0.00 95 1017.0
20260503054403 0 352 0.0 0.0 0.00 0.00 0.00 95 1016.9
20260503053901 0 352 0.0 0.0 0.00 0.00 0.00 95 1017.2
20260503053358 0 352 0.0 0.0 0.00 0.00 0.00 95 1017.2
20260503052854 0 352 0.0 0.0 0.00 0.00 0.00 95 1017.2
20260503052351 0 352 0.0 0.0 0.00 0.00 0.00 95 1017.0
20260503051848 0 352 0.0 0.0 0.00 0.00 0.00 95 1017.2
20260503051344 0 352 0.0 0.0 0.00 0.00 0.00 95 1017.2
20260503050841 0 352 0.0 0.0 0.00 0.00 0.00 95 1017.3
20260503050337 0 352 0.0 0.0 0.00 0.00 0.00 94 1017.2
20260503045835 0 352 0.0 0.0 0.00 0.00 0.00 94 1017.2
20260503045332 0 352 0.0 0.0 0.00 0.00 0.00 94 1017.2
20260503044829 0 352 0.0 0.0 0.00 0.00 0.00 94 1017.1
20260503044326 0 352 0.0 0.0 0.00 0.00 0.00 94 1017.2
20260503043823 0 352 0.0 0.0 0.00 0.00 0.00 94 1017.2
20260503043320 0 352 0.0 0.0 0.00 0.00 0.00 93 1017.3
20260503042816 1 352 0.0 0.0 0.00 0.00 0.00 93 1017.3
20260503042313 1 352 0.0 0.0 0.00 0.00 0.00 93 1017.2
20260503041809 1 352 0.0 0.0 0.00 0.00 0.00 92 1017.4
20260503041306 1 352 0.0 0.0 0.00 0.00 0.00 92 1017.3
20260503040804 1 352 0.0 0.0 0.00 0.00 0.00 92 1017.5
20260503040301 1 352 0.0 0.0 0.00 0.00 0.00 91 1017.0
20260503035758 1 352 0.0 0.0 0.00 0.00 0.00 91 1017.3
20260503035255 1 352 0.0 0.0 0.00 0.00 0.00 90 1017.3
20260503034752 2 352 0.0 0.0 0.00 0.00 0.00 90 1017.2
20260503034249 2 352 0.0 0.0 0.00 0.00 0.00 89 1017.3
20260503033747 2 352 0.0 0.0 0.00 0.00 0.00 89 1017.2
20260503033244 2 352 0.0 1.6 0.00 0.00 0.00 88 1017.2
20260503032742 2 352 0.0 0.0 0.00 0.00 0.00 88 1017.1
20260503032241 2 352 0.0 0.0 0.00 0.00 0.00 88 1017.0
20260503031737 2 352 0.0 0.0 0.00 0.00 0.00 88 1017.3
20260503031236 2 352 0.0 0.0 0.00 0.00 0.00 88 1017.3
20260503030731 2 352 0.0 0.0 0.00 0.00 0.00 87 1017.4